SPTN35 YWIS-YWIS

Flight info

Callsign SPTN35
Flight time N/A
Altitude 2000
Route DCT
Aircraft H60/M-SDFGRY/LB1

Departure

Time 2026-04-17 10:47
Airport Williamson Airport (YWIS)

Arrival

Time N/A
Airport Williamson Airport (YWIS)
Time Latitude Longitude Altitude Speed Heading
2026-04-17 10:42 -22.47302 150.18200 95 ft 0 kts 154°
2026-04-17 10:46 -22.47304 150.18198 96 ft 3 kts 253°
2026-04-17 10:46 -22.47306 150.18102 95 ft 15 kts 274°
2026-04-17 10:46 -22.47324 150.18011 94 ft 11 kts 242°
2026-04-17 10:47 -22.47355 150.17954 94 ft 8 kts 238°
2026-04-17 10:47 -22.47372 150.17909 92 ft 7 kts 291°
2026-04-17 10:47 -22.47264 150.17857 270 ft 42 kts 343°
2026-04-17 10:47 -22.46796 150.18146 756 ft 104 kts 53°
2026-04-17 10:48 -22.46250 150.18793 1034 ft 134 kts 50°
2026-04-17 10:48 -22.45586 150.19668 794 ft 148 kts 52°
2026-04-17 10:48 -22.44941 150.20531 874 ft 151 kts 52°
2026-04-17 10:48 -22.44287 150.21411 860 ft 152 kts 52°
2026-04-17 10:49 -22.43636 150.22288 787 ft 152 kts 52°
2026-04-17 10:49 -22.42977 150.23173 748 ft 151 kts 52°
2026-04-17 10:49 -22.42313 150.24054 827 ft 151 kts 52°
2026-04-17 10:49 -22.41655 150.24938 870 ft 150 kts 52°
2026-04-17 10:50 -22.40995 150.25825 778 ft 153 kts 52°
2026-04-17 10:50 -22.40258 150.26615 810 ft 150 kts 26°
2026-04-17 10:50 -22.39332 150.27115 932 ft 156 kts 29°
2026-04-17 10:50 -22.38375 150.27692 870 ft 157 kts 29°
2026-04-17 10:51 -22.37425 150.28269 883 ft 156 kts 29°
2026-04-17 10:51 -22.36488 150.28839 884 ft 156 kts 29°
2026-04-17 10:51 -22.35543 150.29416 886 ft 155 kts 29°
2026-04-17 10:51 -22.34599 150.30005 885 ft 158 kts 29°
2026-04-17 10:52 -22.33658 150.30598 885 ft 156 kts 29°
2026-04-17 10:52 -22.32720 150.31194 886 ft 155 kts 29°
2026-04-17 10:52 -22.31786 150.31783 886 ft 157 kts 29°
2026-04-17 10:52 -22.30855 150.32367 885 ft 157 kts 29°
2026-04-17 10:53 -22.29901 150.32967 886 ft 156 kts 29°
2026-04-17 10:53 -22.28970 150.33556 885 ft 157 kts 29°
2026-04-17 10:53 -22.28032 150.34153 885 ft 157 kts 29°
2026-04-17 10:53 -22.27094 150.34745 884 ft 155 kts 29°
2026-04-17 10:54 -22.26226 150.35420 538 ft 157 kts 47°
2026-04-17 10:54 -22.25673 150.36150 303 ft 78 kts 50°
2026-04-17 10:54 -22.25447 150.36428 370 ft 53 kts 19°
2026-04-17 10:54 -22.25078 150.36455 268 ft 54 kts 354°
2026-04-17 10:55 -22.24830 150.36453 176 ft 23 kts 313°
2026-04-17 10:55 -22.24771 150.36376 106 ft 8 kts 301°
2026-04-17 10:55 -22.24743 150.36305 106 ft 11 kts 253°
2026-04-17 10:55 -22.24777 150.36254 81 ft 4 kts 213°
2026-04-17 10:56 -22.24809 150.36228 65 ft 6 kts 218°
2026-04-17 10:56 -22.24812 150.36226 66 ft 0 kts 219°
2026-04-17 10:58 -22.25026 150.36297 141 ft 77 kts 163°
2026-04-17 10:59 -22.25790 150.36529 92 ft 141 kts 167°
2026-04-17 10:59 -22.26728 150.36782 96 ft 138 kts 167°
2026-04-17 10:59 -22.27647 150.37030 95 ft 139 kts 167°
2026-04-17 10:59 -22.28580 150.37284 96 ft 139 kts 167°
2026-04-17 11:00 -22.29510 150.37538 95 ft 138 kts 167°
2026-04-17 11:00 -22.30441 150.37792 96 ft 138 kts 167°
2026-04-17 11:00 -22.31373 150.38048 96 ft 138 kts 167°
2026-04-17 11:00 -22.32306 150.38303 94 ft 138 kts 167°
2026-04-17 11:01 -22.33197 150.38546 93 ft 138 kts 167°
2026-04-17 11:01 -22.34143 150.38804 93 ft 138 kts 167°
2026-04-17 11:01 -22.35073 150.39054 94 ft 138 kts 167°
2026-04-17 11:01 -22.35990 150.39300 96 ft 138 kts 167°
2026-04-17 11:02 -22.36927 150.39552 96 ft 138 kts 167°
2026-04-17 11:02 -22.37859 150.39802 96 ft 138 kts 167°
2026-04-17 11:02 -22.38792 150.40056 96 ft 137 kts 167°